Weather History for Lowell, ID

Change the Weather History Date:

Saturday, January 19, 2013

  Actual Average Record
Temperature  
Mean Temperature 33 °F -  
Max Temperature 41 °F 38 °F 48 °F (2014)
Min Temperature 27 °F 29 °F 19 °F (2009)
Degree Days  
Heating Degree Days 32    
Moisture  
Dew Point 26 °F    
Average Humidity 85    
Maximum Humidity 92    
Minimum Humidity 65    
Precipitation  
Precipitation 0.00 in - - ()
Sea Level Pressure  
Sea Level Pressure 30.54 in    
Wind  
Wind Speed 0 mph (SSW)    
Max Wind Speed 4 mph    
Max Gust Speed -    
Averages and records for this station are not official NWS values.
T = Trace of Precipitation, MM = Missing Value Source: NWS Daily Summary

Daily Weather History Graph

Daily Weather History Graph

Search for Another Location

Airport:

Trip Planner

Search our weather history database for the weather conditions in past years. The results will help you decide how hot, cold, wet, or windy it might be!

Date:

Astronomy

Jan. 19, 2013 Rise Set
Actual Time 8:17 AM MST 5:29 PM MST
Civil Twilight 7:44 AM MST 6:02 PM MST
Nautical Twilight 7:07 AM MST 6:39 PM MST
Astronomical Twilight 6:32 AM MST 7:14 PM MST
Moon 12:01 PM MST (1/19) 1:51 AM MST (1/19)
Length of Visible Light 10h 17m
Length of Day
9h 11m
First Quarter, 58% of the Moon is Illuminated
Jan 19
First Quarter
Jan 26
Full
Feb 3
Last Quarter
Feb 10
New
Feb 17
First Quarter

Hourly Weather History & Observations

Time (MST) Temp. Windchill Dew Point Humidity Pressure Visibility Wind Dir Wind Speed Gust Speed Precip Events Conditions
12:52 AM 28.0 °F - 26.1 °F 92% 30.50 in - Calm Calm - N/A   Unknown
1:52 AM 28.9 °F - 26.1 °F 89% 30.50 in - Calm Calm - N/A   Unknown
2:52 AM 28.9 °F - 26.1 °F 89% 30.52 in - Calm Calm - N/A   Unknown
3:52 AM 28.9 °F - 26.1 °F 89% 30.53 in - Calm Calm - N/A   Unknown
4:52 AM 28.9 °F - 25.0 °F 85% 30.53 in - Calm Calm - N/A   Unknown
5:52 AM 28.0 °F - 25.0 °F 88% 30.55 in - Calm Calm - N/A   Unknown
6:52 AM 28.0 °F - 25.0 °F 88% 30.55 in - Calm Calm - N/A   Unknown
7:52 AM 27.0 °F - 24.1 °F 89% 30.57 in - Calm Calm - N/A   Unknown
8:52 AM 27.0 °F 23.0 °F 23.0 °F 85% 30.58 in - SSW 3.5 mph - N/A   Unknown
9:52 AM 27.0 °F - 23.0 °F 85% 30.60 in - Calm Calm - N/A   Unknown
10:52 AM 33.1 °F - 25.0 °F 72% 30.59 in - Calm Calm - N/A   Unknown
11:52 AM 33.1 °F - 26.1 °F 75% 30.56 in - Calm Calm - N/A   Unknown
12:52 PM 37.0 °F - 27.0 °F 67% 30.53 in - Calm Calm - N/A   Unknown
1:52 PM 39.9 °F - 28.9 °F 65% 30.49 in - Calm Calm - N/A   Unknown
2:52 PM 36.0 °F - 30.0 °F 79% 30.48 in - Calm Calm - N/A   Unknown
3:52 PM 34.0 °F - 28.9 °F 82% 30.49 in - Calm Calm - N/A   Unknown
4:52 PM 30.9 °F - 28.0 °F 89% 30.51 in - Calm Calm - N/A   Unknown
5:52 PM 28.0 °F - 26.1 °F 92% 30.52 in - Calm Calm - N/A   Unknown
6:52 PM 28.0 °F - 26.1 °F 92% 30.53 in - Calm Calm - N/A   Unknown
7:52 PM 28.9 °F - 27.0 °F 92% 30.55 in - Calm Calm - N/A   Unknown
8:52 PM 30.0 °F - 27.0 °F 88% 30.56 in - Calm Calm - N/A   Unknown
9:52 PM 30.0 °F - 27.0 °F 88% 30.57 in - Calm Calm - N/A   Unknown
10:52 PM 30.0 °F - 27.0 °F 88% 30.57 in - Calm Calm - N/A   Unknown
11:52 PM 30.0 °F - 27.0 °F 88% 30.58 in - Calm Calm - N/A   Unknown